Weather History for Monroe, MI

Change the Weather History Date:

Monday, December 16, 2013

  Actual Average Record
Temperature  
Mean Temperature 11 °F -  
Max Temperature 21 °F 37 °F 58 °F (1933)
Min Temperature 1 °F 23 °F -7 °F (1951)
Degree Days  
Heating Degree Days 54    
Moisture  
Dew Point 8 °F    
Average Humidity 84    
Maximum Humidity 93    
Minimum Humidity 68    
Precipitation  
Precipitation 0.00 in - - ()
Sea Level Pressure  
Sea Level Pressure 30.08 in    
Wind  
Wind Speed 5 mph (SSW)    
Max Wind Speed 12 mph    
Max Gust Speed -    
Visibility 8 miles    
Events Snow    
Averages and records for this station are not official NWS values.
T = Trace of Precipitation, MM = Missing Value Source: NWS Daily Summary

Daily Weather History Graph

Daily Weather History Graph

Search for Another Location

Airport:

Trip Planner

Search our weather history database for the weather conditions in past years. The results will help you decide how hot, cold, wet, or windy it might be!

Date:

Astronomy

Dec. 16, 2013 Rise Set
Actual Time 7:55 AM EST 5:03 PM EST
Civil Twilight 7:23 AM EST 5:35 PM EST
Nautical Twilight 6:48 AM EST 6:10 PM EST
Astronomical Twilight 6:14 AM EST 6:44 PM EST
Moon 4:54 PM EST (12/16) 7:02 AM EST (12/16)
Length of Visible Light 10h 11m
Length of Day
9h 08m
Full, 100% of the Moon is Illuminated
Dec 16
Full
Dec 17
Full
Dec 25
Last Quarter
Jan 1
New
Jan 7
First Quarter

Hourly Weather History & Observations

Time (EST) Temp. Windchill Dew Point Humidity Pressure Visibility Wind Dir Wind Speed Gust Speed Precip Events Conditions
12:13 AM 14.0 °F 0.5 °F 8.6 °F 79% 30.03 in 10.0 mi WSW 11.5 mph - N/A   Overcast
12:33 AM 12.2 °F -1.0 °F 8.6 °F 85% 30.03 in 10.0 mi WSW 10.4 mph - N/A   Scattered Clouds
12:53 AM 12.2 °F 0.7 °F 6.8 °F 79% 30.02 in 10.0 mi WSW 8.1 mph - N/A   Mostly Cloudy
1:13 AM 10.4 °F -3.3 °F 6.8 °F 85% 30.03 in 10.0 mi WSW 10.4 mph - N/A   Scattered Clouds
1:33 AM 10.4 °F -4.1 °F 6.8 °F 85% 30.03 in 10.0 mi WSW 11.5 mph - N/A   Scattered Clouds
1:56 AM 10.4 °F -3.3 °F 6.8 °F 85% 30.04 in 10.0 mi WSW 10.4 mph - N/A   Scattered Clouds
2:11 AM 10.4 °F -4.1 °F 6.8 °F 85% 30.04 in 10.0 mi WSW 11.5 mph - N/A   Scattered Clouds
2:33 AM 10.4 °F -2.4 °F 5.0 °F 79% 30.04 in 10.0 mi WSW 9.2 mph - N/A   Clear
2:53 AM 10.4 °F -2.4 °F 6.8 °F 85% 30.05 in 10.0 mi WSW 9.2 mph - N/A   Clear
3:13 AM 10.4 °F 0.8 °F 5.0 °F 79% 30.06 in 10.0 mi WSW 5.8 mph - N/A   Clear
3:33 AM 8.6 °F 0.1 °F 5.0 °F 85% 30.07 in 10.0 mi WSW 4.6 mph - N/A   Clear
3:53 AM 8.6 °F 0.1 °F 3.2 °F 79% 30.07 in 10.0 mi WSW 4.6 mph - N/A   Clear
4:14 AM 6.8 °F -3.5 °F 3.2 °F 85% 30.07 in 10.0 mi West 5.8 mph - N/A   Clear
4:34 AM 6.8 °F -3.5 °F 3.2 °F 85% 30.07 in 10.0 mi WSW 5.8 mph - N/A   Clear
4:54 AM 5.0 °F -5.6 °F 3.2 °F 92% 30.08 in 10.0 mi WSW 5.8 mph - N/A   Clear
5:14 AM 3.2 °F -7.8 °F 1.4 °F 92% 30.08 in 10.0 mi WSW 5.8 mph - N/A   Clear
5:34 AM 3.2 °F -4.2 °F 1.4 °F 92% 30.09 in 10.0 mi WSW 3.5 mph - N/A   Clear
5:54 AM 1.4 °F -6.2 °F -0.4 °F 92% 30.09 in 7.0 mi WSW 3.5 mph - N/A   Clear
6:14 AM 1.4 °F -6.2 °F -0.4 °F 92% 30.09 in 7.0 mi WSW 3.5 mph - N/A   Clear
6:34 AM 1.4 °F - -0.4 °F 92% 30.09 in 5.0 mi Calm Calm - N/A   Clear
6:54 AM 3.2 °F - 1.4 °F 92% 30.09 in 5.0 mi Calm Calm - N/A   Clear
7:15 AM 1.4 °F - -0.4 °F 92% 30.10 in 2.5 mi Calm Calm - N/A   Clear
7:35 AM 3.2 °F - -0.4 °F 85% 30.10 in 5.0 mi Calm Calm - N/A   Clear
7:55 AM 3.2 °F - -0.4 °F 85% 30.10 in 5.0 mi Calm Calm - N/A   Clear
8:15 AM 3.2 °F - -0.4 °F 85% 30.11 in 4.0 mi Calm Calm - N/A   Clear
8:35 AM 1.4 °F - -0.4 °F 92% 30.11 in 1.8 mi Calm Calm - N/A Snow Light Snow
8:55 AM 3.2 °F - -0.4 °F 85% 30.13 in 1.0 mi Calm Calm - N/A Snow Light Snow
9:15 AM 3.2 °F - 1.4 °F 92% 30.13 in 4.0 mi Calm Calm - N/A   Clear
9:35 AM 6.8 °F - 3.2 °F 85% 30.14 in 7.0 mi Calm Calm - N/A   Clear
9:55 AM 6.8 °F -0.1 °F 5.0 °F 92% 30.14 in 7.0 mi WSW 3.5 mph - N/A   Clear
10:15 AM 8.6 °F -1.3 °F 6.8 °F 92% 30.15 in 7.0 mi WSW 5.8 mph - N/A   Clear
10:35 AM 10.4 °F 0.8 °F 6.8 °F 85% 30.16 in 7.0 mi WSW 5.8 mph - N/A   Clear
10:56 AM 10.4 °F 2.2 °F 8.6 °F 92% 30.16 in 7.0 mi WSW 4.6 mph - N/A   Clear
11:16 AM 10.4 °F - 8.6 °F 92% 30.16 in 7.0 mi Calm Calm - N/A   Clear
11:36 AM 12.2 °F 6.1 °F 10.4 °F 92% 30.15 in 10.0 mi WSW 3.5 mph - N/A   Clear
11:56 AM 14.0 °F - 10.4 °F 86% 30.14 in 10.0 mi Calm Calm - N/A   Clear
12:16 PM 15.8 °F - 8.6 °F 73% 30.14 in 10.0 mi Calm Calm - N/A   Clear
12:36 PM 15.8 °F - 8.6 °F 73% 30.12 in 10.0 mi Calm Calm - N/A   Clear
12:56 PM 15.8 °F - 8.6 °F 73% 30.11 in 10.0 mi Calm Calm - N/A   Clear
1:12 PM 15.8 °F - 8.6 °F 73% 30.11 in 10.0 mi Calm Calm - N/A   Mostly Cloudy
1:32 PM 17.6 °F - 8.6 °F 68% 30.10 in 10.0 mi Calm Calm - N/A   Overcast
1:52 PM 17.6 °F - 8.6 °F 68% 30.09 in 10.0 mi Calm Calm - N/A   Overcast
2:12 PM 19.4 °F - 10.4 °F 68% 30.09 in 10.0 mi Calm Calm - N/A   Overcast
2:32 PM 19.4 °F - 10.4 °F 68% 30.10 in 10.0 mi Calm Calm - N/A   Overcast
2:52 PM 19.4 °F - 10.4 °F 68% 30.09 in 10.0 mi Calm Calm - N/A   Overcast
3:12 PM 19.4 °F - 10.4 °F 68% 30.09 in 10.0 mi Calm Calm - N/A   Scattered Clouds
3:32 PM 17.6 °F - 8.6 °F 68% 30.09 in 10.0 mi Calm Calm - N/A   Scattered Clouds
3:52 PM 17.6 °F - 8.6 °F 68% 30.09 in 10.0 mi Calm Calm - N/A   Scattered Clouds
4:12 PM 19.4 °F 14.3 °F 10.4 °F 68% 30.09 in 10.0 mi East 3.5 mph - N/A   Mostly Cloudy
4:32 PM 17.6 °F 12.3 °F 10.4 °F 73% 30.09 in 10.0 mi East 3.5 mph - N/A   Mostly Cloudy
4:52 PM 17.6 °F 10.7 °F 10.4 °F 73% 30.08 in 10.0 mi ESE 4.6 mph - N/A   Scattered Clouds
5:13 PM 15.8 °F - 12.2 °F 86% 30.07 in 10.0 mi Calm Calm - N/A   Clear
5:33 PM 15.8 °F - 12.2 °F 86% 30.07 in 10.0 mi Calm Calm - N/A   Scattered Clouds
5:53 PM 15.8 °F - 10.4 °F 79% 30.07 in 10.0 mi Calm Calm - N/A   Mostly Cloudy
6:13 PM 15.8 °F 8.6 °F 12.2 °F 86% 30.07 in 10.0 mi ESE 4.6 mph - N/A   Mostly Cloudy
6:33 PM 17.6 °F 10.7 °F 12.2 °F 79% 30.08 in 10.0 mi ESE 4.6 mph - N/A   Mostly Cloudy
6:53 PM 15.8 °F - 12.2 °F 86% 30.08 in 10.0 mi Calm Calm - N/A   Scattered Clouds
7:13 PM 15.8 °F - 12.2 °F 86% 30.08 in 10.0 mi Calm Calm - N/A   Scattered Clouds
7:33 PM 15.8 °F - 12.2 °F 86% 30.08 in 10.0 mi Calm Calm - N/A   Mostly Cloudy
7:53 PM 14.0 °F 8.2 °F 12.2 °F 93% 30.07 in 10.0 mi East 3.5 mph - N/A   Overcast
8:14 PM 19.4 °F 11.5 °F 15.8 °F 86% 30.05 in 10.0 mi ESE 5.8 mph - N/A   Overcast
8:34 PM 19.4 °F 11.5 °F 15.8 °F 86% 30.05 in 10.0 mi ESE 5.8 mph - N/A   Overcast
8:54 PM 19.4 °F 12.8 °F 15.8 °F 86% 30.04 in 10.0 mi ESE 4.6 mph - N/A   Overcast
9:14 PM 19.4 °F 12.8 °F 15.8 °F 86% 30.03 in 5.0 mi ESE 4.6 mph - N/A Snow Light Snow
9:34 PM 19.4 °F 12.8 °F 17.6 °F 93% 30.02 in 1.2 mi ESE 4.6 mph - N/A Snow Light Snow
9:54 PM 19.4 °F 14.3 °F 17.6 °F 93% 30.01 in 1.5 mi ESE 3.5 mph - N/A Snow Light Snow
10:14 PM 21.2 °F - 19.4 °F 93% 30.00 in 1.2 mi Calm Calm - N/A Snow Snow
10:34 PM 21.2 °F 14.9 °F 19.4 °F 93% 29.99 in 1.5 mi SE 4.6 mph - N/A Snow Light Snow
10:55 PM 21.2 °F 16.4 °F 19.4 °F 93% 29.98 in 1.5 mi SE 3.5 mph - N/A Snow Light Snow
11:15 PM 21.2 °F 13.6 °F 19.4 °F 93% 29.97 in 2.5 mi SE 5.8 mph - N/A Snow Light Snow
11:35 PM 21.2 °F 16.4 °F 19.4 °F 93% 29.97 in 1.8 mi SSE 3.5 mph - N/A Snow Light Snow
11:55 PM 21.2 °F - 19.4 °F 93% 29.97 in 2.0 mi Calm Calm - N/A Snow Light Snow